Regional Weather Roundup
Issued by NWS Northern Indiana

Home | Current Version | Previous Version | Graphics & Text | Print | Product List | Glossary On
Versions: 1 2 3 4 5 6 7 8 9 10 11 12 13 14 15 16 17 18 19 20 21 22 23 24 25 26 27 28 29 30 31 32 33 34 35 36 37 38 39 40 41 42 43 44 45 46 47 48 49 50
000
ASUS43 KIWX 252300
RWRIWX

KIWX WEATHER ROUNDUP
NATIONAL WEATHER SERVICE NORTHERN INDIANA
700 PM EDT MON JUL 25 2016

NOTE: "FAIR" INDICATES FEW OR NO CLOUDS BELOW 12,000 FEET WITH NO
SIGNIFICANT WEATHER AND/OR OBSTRUCTIONS TO VISIBILITY.

* THESE STATIONS ARE NOT UNDER NWS QUALITY CONTROL. THEY ALSO MAY NOT
  REPORT WEATHER SUCH AS PRECIPITATION OR FOG.

INZ001>027-260000-
NORTHERN INDIANA

CITY           SKY/WX    TMP DP  RH WIND       PRES   REMARKS
GARY*          PTSUNNY   84  64  51 NE9       29.99S
KNOX*          MOSUNNY   79  54  41 N5        30.00R
SOUTH BEND     MOSUNNY   81  61  50 NW8       30.01R
ELKHART*       MOSUNNY   82  68  61 W9        30.00R
GOSHEN         SUNNY     83  63  50 NW12      29.99R
ANGOLA*          N/A     84  81  89 W9        29.97S HX  98
FORT WAYNE     PTSUNNY   84  67  56 W7        29.97S
PERU/GRISSOM   CLOUDY    83  69  62 N8        29.97F

$$
INZ028>050-260000-
CENTRAL INDIANA

CITY           SKY/WX    TMP DP  RH WIND       PRES   REMARKS
LAFAYETTE      CLOUDY    84  71  65 N6        29.97F
KOKOMO*        CLOUDY    84  68  58 N7        29.98F
MUNCIE*        MOSUNNY   85  71  63 NW12      29.98S
INDIANAPOLIS   CLOUDY    85  72  65 NW8       29.98F

$$
MIZ043>046-050>051-056>058-064>065-071>073-077>080-260000-
SOUTHWEST LOWER MICHIGAN

CITY           SKY/WX    TMP DP  RH WIND       PRES   REMARKS
BATTLE CREEK   SUNNY     81  64  56 NW14      29.98S
BENTON HARBOR  SUNNY     80  61  52 NW3       29.99F
COLDWATER*     SUNNY     83  64  54 W9        29.97S
HILLSDALE*     CLOUDY    82  64  55 W7        29.97S
HOLLAND        SUNNY     79  64  60 W8        29.99F
GRAND RAPIDS   MOSUNNY   83  61  47 W14       29.96S
KALAMAZOO      SUNNY     82  61  48 NW10      29.98S
STURGIS*       SUNNY     81  65  58 W10       29.98R
THREE RIVERS*  FAIR      82  61  49 NW10      29.99R

$$
OHZ001>008-015>018-024>025-260000-
NORTHWEST OHIO

CITY           SKY/WX    TMP DP  RH WIND       PRES   REMARKS
DEFIANCE       CLOUDY    88  63  43 NW8       29.95S
FINDLAY        SUNNY     88  66  48 NW7       29.93S
TOLEDO EXPRESS SUNNY     85  67  54 W12       29.93S
TOLEDO METCALF SUNNY     88  66  48 W10       29.93S
LIMA           MOSUNNY   83  71  67 W9        29.96S

$$
AND FOR LAKE MICHIGAN COASTAL AND OPEN LAKE BUOY OBSERVATIONS

STATION/POSITION TEMP    WIND        PRES    VSBY  WAVE
                 AIR SEA DIR/SP/G                  HT/PER
                 (F)     (DEG/KT/KT) (MB)    (MI)  (FT/S)
CALUMET HARBOR    77      90/  7/  9   N/A
MICHIGAN CITY     76      20/  5/  5   N/A
BURNS HARBOR      79      70/  7/  9 1015.9S
SAINT JOSEPH      81     250/  3/  4 1016.9R
SOUTH LAKE BUOY   76 76  180/  4/  4 1014.8          1
4 MI NW BRIDGMAN  76 77   CALM  /  2 1015.6S         1/ 4
MICHIGAN CITY     76 76   90/  4/  6   N/A           1

$$
&&




USA.gov is the U.S. government's official web portal to all federal, state and local government web resources and services.